Weather in Santiago

Chile     33°28′39″S   70°38′32″W
temp.,
°C
wind,
m/s
gust,
m/s
humid.,
%
clouds,
%
prec.,
mm/h
press.,
hPa
HPBL,
m
7 may, fri
fri723:00+19ssw112798 0.0 101111
02:00+17sw1132100 0.0 101121
05:00+16sw1137100 0.0 101359
08:00+15ssw1146100 0.0 101676
11:00+18wsw334863 0.0 1017590
14:00+19sw325097 0.0 10171231
17:00+18wsw3355100 0.0 1016890
20:00+16wsw2363100 0.0 1018536
8 may, sat
sat823:00+14sw11673 0.0 1019363
02:00+13sw1171100 0.0 1019195
05:00+13ssw1173100 0.0 1019227
08:00+13sw1174100 0.0 1020227
11:00+15sw1160100 0.0 1020550
14:00+18wsw2252100 0.0 1018933
17:00+18wsw3250100 0.0 10181000
20:00+16sw2253100 0.0 1018337
9 may, sun
sun923:00+14wsw2261100 0.0 1019253
02:00+13ssw1264100 0.0 1018242
05:00+13s1266100 0.0 1018224
08:00+13se1168100 0.0 1019196
11:00+16s1157100 0.0 1019449
14:00+19sw114113 0.0 1017765
17:00+20wsw113863 0.0 1016721
20:00+17sw11470 0.0 101744
10 may, mon
mon1023:00+15s11510 0.0 101735
02:00+14se115318 0.0 101624
05:00+13ese01545 0.0 101614
08:00+14ene01500 0.0 101613
11:00+19sw00330 0.0 1015282
14:00+23wsw12210 0.0 1013585
17:00+23wsw2222100 0.0 1013545
20:00+19sw1133100 0.0 101432
11 may, tue
tue1123:00+17sw1139100 0.0 101427
02:00+16s114195 0.0 101416
05:00+15sse00390 0.0 101311
08:00+15e01360 0.0 101411
11:00+20n00240 0.0 1014269
14:00+24w11160 0.0 1013552
17:00+24wsw12170 0.0 1013352
20:00+20sw11260 0.0 101417